AirNav   Duncan Aviation - Near you to keep you flying
 
 1077 users online  

5WI3 Der Schwarzwald Airport
Waterloo, Wisconsin, USA

GOING TO WATERLOO?


FAA INFORMATION EFFECTIVE 26 JANUARY 2023

Location

FAA Identifier: 5WI3
Lat/Long: 43-12-27.9800N 089-01-01.3930W
43-12.466333N 089-01.023217W
43.2077722,-89.0170536
(estimated)
Elevation: 925 ft. / 282 m (estimated)
Variation: 00W (1985)
From city: 2 miles NW of WATERLOO, WI
Time zone: UTC -6 (UTC -5 during Daylight Saving Time)
Zip code: 53594

Airport Operations

Airport use: Private use. Permission required prior to landing
Activation date: 07/1989
Control tower: no
ARTCC: CHICAGO CENTER
FSS: GREEN BAY FLIGHT SERVICE STATION
Attendance: UNATNDD
Wind indicator: yes
Segmented circle: no

Airport Communications

WX AWOS-3 at RYV (13 nm E): 119.975 (920-261-0734)
WX ASOS at MSN (15 nm W): PHONE 608-249-0615
WX AWOS-3 at UNU (19 nm NE): 120.825 (920-386-5682)

Nearby radio navigation aids

VOR radial/distance  VOR name  Freq  Var
MSNr072/14.6MADISON VORTAC108.6003E
BAEr278/32.5BADGER VOR/DME116.4002E
DLLr119/38.5DELLS VORTAC117.0003E
JVLr003/39.2JANESVILLE VOR/DME114.3003E

 
NDB name  Hdg/Dist  Freq  Var  ID
ROCK RIVER280/12.937101WRYV .-. -.-- ...-

Airport Services

Runway Information

Runway 4/22

Dimensions: 2000 x 70 ft. / 610 x 21 m
Surface: turf
RUNWAY 4  RUNWAY 22
Traffic pattern: leftleft
Displaced threshold: 700 ft.300 ft.
Obstructions: 50 ft. trees, 200 ft. from runway30 ft. pline, 600 ft. from runway

Airport Ownership and Management from official FAA records

Ownership: Privately-owned
Owner: HILLAKER CO.
6422 YORK HTS. RD
WATERLOO, WI 53594
Phone (920) 478-3800
Manager: ALVIN E. WHITAKER
6422 YORK HTS. RD
WATERLOO, WI 53594
Phone (920) 478-3800

Airport Operational Statistics

Aircraft based on the field: 2
Single engine airplanes: 2
    

Additional Remarks

FOR CD CTC CHICAGO ARTCC AT 630-906-8921.

Instrument Procedures

There are no published instrument procedures at 5WI3.

Some nearby airports with instrument procedures:

87Y - Blackhawk Airfield (10 nm SW)
KRYV - Watertown Municipal Airport (13 nm E)
KMSN - Dane County Regional Airport-Truax Field (15 nm W)
61C - Fort Atkinson Municipal Airport (17 nm SE)
KUNU - Dodge County Airport (19 nm NE)
 
Loc | Ops | Rwys | IFR | FBO | Links
Com | Nav | Svcs | Stats | Notes
Area around 5WI3 (Der Schwarzwald Airport)
 
Road maps at: MapQuest Bing Google
 
Aerial photo
No photo
 
Sectional chart

 
Airport distance calculator
Flying to Der Schwarzwald Airport? Find the distance to fly.

From to 5WI3

Sunrise and sunset
Times for 28-Jan-2023
 Local
(UTC-6)
 Zulu
(UTC)
Morning civil twilight06:4612:46
Sunrise07:1713:17
Sunset17:0123:01
Evening civil twilight17:3223:32

Current date and time
Zulu (UTC)  28-Jan-2023 22:40:32
Local (UTC-6)  28-Jan-2023 16:40:32
 
METAR
KRYV 
13nm E 
282215Z AUTO 02005KT 2 1/2SM -SN SCT023 BKN035 OVC044 M09/M11 A3015 RMK AO2 T10871112
KMSN 
15nm W 
282153Z 05011KT 1SM R36/5500VP6000FT -SN SCT011 BKN033 OVC047 M09/M12 A3015 RMK AO2 SFC VIS 2 1/2 SLP226 P0001 T10891117
KUNU 
19nm NE 
282215Z AUTO 36006KT 1 3/4SM -SN OVC017 M10/M11 A3018 RMK AO2 T11001115
KC29 
23nm W 
282215Z AUTO 03009KT 3SM SCT018 BKN023 OVC070 M08/M10 A3015 RMK AO1 T10821101
TAF
KMSN 
15nm W 
282155Z 2822/2918 04008KT 1 1/2SM -SN SCT013 OVC030 FM290000 03010KT 1SM -SN OVC013 FM290600 01013KT 3SM -SHSN SCT013 OVC022 FM291000 01012G21KT P6SM -SHSN OVC022 FM291600 35011KT P6SM BKN027
NOTAMs
Click for the latest NOTAMs
NOTAMs are issued by the DoD/FAA and will open in a separate window not controlled by AirNav.

 

 
 

Would you like to see your business listed on this page?

 If your business provides an interesting product or service to pilots, flight crews, aircraft, or users of the Der Schwarzwald Airport, you should consider listing it here.  To start the listing process, click on the button below
 
Add a business
 

Other Pages about Der Schwarzwald Airport

Update a link
 
Copyright © AirNav, LLC. All rights reserved. Privacy Policy  Contact